星链-34884(STARLINK-34884)

导读

STARLINK-34884是由美国发射的星链系列卫星,于2025年10月31日发射入轨。星链计划是SpaceX打造的低轨卫星互联网星座项目,旨在为全球提供高速低延迟互联网服务,该卫星的发射进一步扩充了星链星座的在轨卫星规模,推进星座组网进程。

基本信息
目录编号:
66287
目录名称:
STARLINK-34884
国际标识:
2025-247Y
轨道中心:
EARTH
卫星名称:
星链-34884
卫星全名:
星链-34884(STARLINK-34884)
卫星状态:
在轨 (已飞行225 天)
发射日期:
2025-10-31 UTC
国别 :
美国 (US)
星等 :
--
轨道信息
数据来源 国际轨道数据
星历时间: 2026-06-12T11:03:26+0800
1天前
查看轨道信息
半长轴: 6840.836km
偏心率: 0.0001234
轨道倾角: 53.159°
近地点辐角 90.437°
升交点赤经 111.290°
平近点角 269.677°
近地点: 461.854km
远地点: 463.544km
周期: 93.848分钟
每日圈数: 15.344017
详细信息
固有亮度:
5
最大亮度:
2.5
卫星平台:
Starlink V1.0
覆盖范围:
全球
运营商:
太空探索技术公司
运营商所在国:
美国
制造商(研发单位):
太空探索技术公司
制造商所在国:
美国
使用方式:
暂无
卫星简介
Starlink 计划是 SpaceX 推出的全球卫星互联网项目,通过发射低轨道卫星,为全球尤其是偏远地区提供高速、低延迟的互联网服务。自 2019 年起,Starlink 已部署数千颗卫星,旨在缩小全球数字鸿沟,推动互联网普及。该项目还为军事、航空等行业提供通信支持,带来广泛经济效益。
2D轨道图
3D轨道图
轨道高度分析图
轨道倾角分析图
轨道综合分析图
查看轨道综合分析图